Voltar ao catálogo

SL-8 DEB

AtivoLEO
NORAD 21161·DEBRIS·🇷🇺 Russia

Lançado Feb 12, 1991 de Plesetsk Cosmodrome

Loading…

Próximas Passagens (próximas 24 horas)

TLE

AtualizadoSource: Space-Track

Época: Sep 14, 2026, 14:04 UTC

1 21161U 91009Y   26257.58631359  .00000023  00000-0  34425-3 0  9998
2 21161  74.0715 125.8968 0131682 136.0310 237.7028 12.19453622581582

Acompanhe SL-8 DEB em tempo real com AllMySat

Download on the App Store